Regional Weather Roundup
Issued by NWS

Home | Current Version | Previous Version | Graphics & Text | Print | Product List | Glossary On
Versions: 1 2 3 4 5 6 7 8 9 10 11 12 13 14 15 16 17 18 19 20 21 22 23 24 25 26 27 28 29 30 31 32 33 34 35 36 37 38 39 40 41 42 43 44 45 46 47 48 49 50
000
ASUS43 KLOT 280012
RWRIL

ILLINOIS REGIONAL WEATHER ROUNDUP
NATIONAL WEATHER SERVICE CHICAGO/ROMEOVILLE IL
700 PM CDT MON JUL 27 2015

NOTE: "FAIR" INDICATES FEW OR NO CLOUDS BELOW 12,000 FEET WITH NO
SIGNIFICANT WEATHER AND/OR OBSTRUCTIONS TO VISIBILITY.

* THESE STATIONS ARE NOT UNDER NWS QUALITY CONTROL. THEY ALSO MAY NOT
  REPORT WEATHER SUCH AS PRECIPITATION OR FOG.

ILZ001-002-007-009-015-016-024-280100-
NORTHWEST ILLINOIS

CITY           SKY/WX    TMP DP  RH WIND       PRES   REMARKS
MOLINE         CLOUDY    83  73  72 CALM      29.96R HX  89
6HR MIN TEMP:  83; 6HR MAX TEMP:  87;

STERLING*      CLOUDY    81  73  78 SE3       29.96R HX  85
SAVANNA*       CLOUDY    83  73  69 CALM      29.96S HX  89
$$

ILZ003-004-008-010-011-017-018-280100-
NORTH CENTRAL ILLINOIS

CITY           SKY/WX    TMP DP  RH WIND       PRES   REMARKS
ROCKFORD       CLOUDY    83  64  52 E10       29.99R HX  84
6HR MIN TEMP:  83; 6HR MAX TEMP:  90;

FREEPORT*      CLOUDY    81  72  75 CALM      29.99S HX  85
ROCHELLE*      CLOUDY    81  74  79 CALM      29.98S HX  86
DE KALB*       CLOUDY    80  68  65 CALM      29.99S HX  82
PERU*          CLOUDY    84  67  57 SE6       29.97R HX  86
$$

ILZ005-006-012>014-019>023-280100-
NORTHEAST ILLINOIS

CITY           SKY/WX    TMP DP  RH WIND       PRES   REMARKS
CHICAGO-OHARE  CLOUDY    81  64  56 NE10      29.98R HX  82
6HR MIN TEMP:  81; 6HR MAX TEMP:  88;

CHICAGO-MIDWAY CLOUDY    84  61  45 NE12      29.98R HX  84
6HR MIN TEMP:  84; 6HR MAX TEMP:  90;

AURORA         CLOUDY    82  66  58 SE5       29.97R HX  84
6HR MIN TEMP:  82; 6HR MAX TEMP:  90;

LANSING*       PTSUNNY   80  60  51 NE8       29.98R HX  81
JOLIET*        PTSUNNY   83  65  55 E6        29.97R HX  84
WAUKEGAN       MOSUNNY   75  64  68 NE3       29.99F
6HR MIN TEMP:  75; 6HR MAX TEMP:  82;

DUPAGE AIRPORT CLOUDY    82  62  50 E7        29.97R HX  83
6HR MIN TEMP:  82; 6HR MAX TEMP:  89;

KANKAKEE*      PTSUNNY   81  69  67 NE5       29.96R HX  85
WHEELING       PTSUNNY   79  64  60 E6        30.00S HX  81
6HR MIN TEMP:  79; 6HR MAX TEMP:  86;

MORRIS*        PTSUNNY   81  65  59 E6        29.96R HX  83
ROMEOVILLE*    PTSUNNY   82  62  50 E9        29.98R HX  82
NORTHERLY ISL    N/A     76  67  73 MISG        N/A
$$

LMZ740>746-280100-
SOUTHERN LAKE MICHIGAN

STATION/POSITION SKY/WX   TEMP    WIND        PRES    VSBY  WAVE
                          AIR SEA DIR/SP/G                  HT/PER
                          (F)     (DEG/KT/KT) (MB)    (MI)  (FT/S)
HARRISON CRIB              75      20/ 10/ 11   N/A
BURNHAM HARBOR             76      10/  5/  9   N/A
CALUMET HARBOR             77     360/  7/ 10   N/A
MICHIGAN CITY              75      20/ 11/ 12   N/A
MICHIGAN CITY 6N           76 76   40/ 10/ 12   N/A           2/ 2
ST. JOSEPH                 75 74   50/ 10/ 14   N/A           2/ 2
$$

ILZ025>027-034>036-040-047-049-050-058-095>099-280100-
WEST-CENTRAL ILLINOIS

CITY           SKY/WX    TMP DP  RH WIND       PRES   REMARKS
QUINCY         TSTM      71  70  96 NW16G29   29.99R VSB 3/4
GALESBURG*     CLOUDY    79  74  85 CALM      29.97R HX  83
MACOMB*        CLOUDY    78  75  91 N6        29.97S HX  81
JACKSONVILLE*  PTSUNNY   86  78  76 NE3       29.93R HX  98
PITTSFIELD*    PTSUNNY   84  77  79 N5        29.95R HX  93
$$

ILZ028>032-037-038-041>044-048-051>054-059>061-280100-
CENTRAL ILLINOIS

CITY           SKY/WX    TMP DP  RH WIND       PRES   REMARKS
PONTIAC        PTSUNNY   83  75  78 NE5       29.96S HX  90
BLOOMINGTON    MOSUNNY   83  74  74 E6        29.97R HX  89
DECATUR        MOSUNNY   83  75  77 NE6       29.94R HX  90
PEORIA         CLOUDY    84  72  67 NE5       29.94S HX  89
6HR MIN TEMP:  82; 6HR MAX TEMP:  89;

LACON*         PTSUNNY   82  72  71 CALM      29.95R HX  87
LINCOLN*       PTSUNNY   84  73  69 NE5       29.92F HX  90
SPRINGFIELD    PTSUNNY   86  75  69 NE6       29.93S HX  95
6HR MIN TEMP:  86; 6HR MAX TEMP:  92;

TAYLORVILLE    MOSUNNY   82  73  74 NE5       29.92S HX  88
$$

ILZ033-039-045-046-055>057-062-063-280100-
EAST-CENTRAL ILLINOIS

CITY           SKY/WX    TMP DP  RH WIND       PRES   REMARKS
CHAMPAIGN      MOSUNNY   82  71  69 E6        29.94F HX  86
DANVILLE*      MOSUNNY   82  76  80 CALM      29.92S HX  90
RANTOUL*       PTSUNNY   85  74  69 CALM      29.95S HX  92
MATTOON        SUNNY     83  72  69 NE7       29.92S HX  88
PARIS*         SUNNY     83  75  77 CALM      29.94S HX  90
$$

ILZ079-100>102-280100-
SOUTHWEST ILLINOIS

CITY           SKY/WX    TMP DP  RH WIND       PRES   REMARKS
ALTON          PTSUNNY   82  75  78 SE7       29.92R HX  89
BELLEVILLE     CLOUDY    81  76  86 S5        29.91R HX  87
CAHOKIA*       CLOUDY    82  73  74 CALM      29.91R HX  87
SPARTA*        CLOUDY    76  73  88 CALM      29.92R
$$

ILZ064>066-069>071-074>076-080>082-084>086-088>090-092>094-280100-
SOUTH-CENTRAL ILLINOIS

CITY           SKY/WX    TMP DP  RH WIND       PRES   REMARKS
CARBONDALE     CLOUDY    76  72  87 E6        29.91R
6HR MIN TEMP:  75; 6HR MAX TEMP:  93; 6HR PCP:  0.01;

CAIRO*         MOSUNNY   86  78  76 S3        29.90R HX  99
EFFINGHAM*     CLOUDY    86  73  66 NE3       29.93R HX  93
MARION         TSTM      81  73  78 S10       29.94R HX  85
MT. VERNON     CLOUDY    81  72  74 SW7       29.93R HX  84
CENTRALIA*     CLOUDY    80  70  72 CALM      29.92S HX  83
SALEM*         CLOUDY    85  75  72 S5        29.92R HX  94
METROPOLIS*    MOSUNNY   87  80  78 CALM      29.92R HX 102
$$

ILZ067-068-072-073-078-083-087-091-280100-
SOUTHEAST ILLINOIS

CITY           SKY/WX    TMP DP  RH WIND       PRES   REMARKS
LAWRENCEVILLE  MOSUNNY   86  77  74 SE6       29.91R HX  97
FLORA*         MOSUNNY   85  76  74 S3        29.91S HX  95
FAIRFIELD*     CLOUDY    83  78  85 SE3       29.90R HX  94
HARRISBURG*    CLOUDY    79  75  87 CALM      29.94R HX  82
ROBINSON*      MOSUNNY   85  77  76 CALM      29.92R HX  95
CARMI*         CLOUDY    82  71  70 S6        29.91R HX  86
$$

ABBREVIATIONS USED IN REMARKS
   TC - TEMPERATURE IN CELSIUS
  WCI - WIND CHILL INDEX
   HX - HEAT INDEX
  VSB - VISIBILITY
$$




USA.gov is the U.S. government's official web portal to all federal, state and local government web resources and services.